User: anonymous   Login
Location: Newark
(45.5000°N, 11.4167°E)
Time: 18:12:29
(UTC+00:00)
Language:

Transit 2A Rocket - Orbit

View from above orbital plane
View from above orbital plane
View from above satellite
View from above satellite

Ground track
Ground track

The orbit data is extracted from the following two-line orbital elements,

1    47U 60007C   20226.77825509 -.00000048 +00000-0 +14624-4 0  9993
2    47 066.6673 001.7198 0235392 261.5776 095.8585 14.42096454142940
Epoch (UTC): 13 August 2020 18:40:41
Eccentricity: 0.0235392
inclination: 66.6673°
perigee height: 584 km
apogee height: 919 km
right ascension of ascending node: 1.7198°
argument of perigee: 261.5776°
revolutions per day: 14.42096454
mean anomaly at epoch: 95.8585°
orbit number at epoch: 14294

The dashed part of the orbit path shows where the satellite is in the earth's shadow,  

DLR